Location: Krakow
(50.0830°N, 19.9170°E)
Time: 10:30:35
(UTC+01:00)

Transit 2A - Pass Details

Date: 12 February 2023
Orbit: 591 x 964 km, 66.7° (Epoch: 21 March)

Event Time Altitude Azimuth Distance (km) Brightness Sun altitude
Rises 13:56:31 0° 182° (S) 3,017 10.1 20.9°
Reaches altitude 10° 13:58:56 10° 172° (S) 2,162 9.2 20.7°
Maximum altitude 14:03:13 30° 111° (ESE) 1,319 7.3 20.3°
Drops below altitude 10° 14:07:55 10° 52° (NE) 2,392 8.1 19.9°
Sets 14:10:44 0° 42° (NE) 3,396 8.7 19.6°
